Regional Weather Roundup
Issued by NWS

Home | Current Version | Previous Version | Text Only | Print | Product List | Glossary On
Versions: 1 2 3 4 5 6 7 8 9 10 11 12 13 14 15 16 17 18 19 20 21 22 23 24 25 26 27 28 29 30 31 32 33 34 35 36 37 38 39 40 41 42 43 44 45 46 47 48 49 50
000
ASUS42 KTBW 240516
RWRFL
FLORIDA REGIONAL WEATHER ROUNDUP
NATIONAL WEATHER SERVICE TAMPA BAY RUSKIN FL
100 AM EDT WED AUG 24 2016

NOTE: "FAIR" INDICATES FEW OR NO CLOUDS BELOW 12,000 FEET WITH NO
SIGNIFICANT WEATHER AND/OR OBSTRUCTIONS TO VISIBILITY.

FLZ001>010-012>015-112-114-115-240600-
PANHANDLE FLORIDA

CITY           SKY/WX    TMP DP  RH WIND       PRES   REMARKS
PENSACOLA      CLOUDY    81  76  84 NW3       30.13F
PENSACOLA NAS  CLOUDY    80  77  90 W3        30.13F
MILTON NAS     PTCLDY    78  77  96 NW5       30.14F
CRESTVIEW      CLOUDY    78  74  87 NE3       30.16F
DUKE FIELD     MOCLDY    79  74  86 E2        30.15F
VALPARAISO     MOCLDY    82  75  81 CALM      30.14F
MARY ESTHER    CLOUDY    81  76  84 N3        30.12F
PANAMA CITY    FAIR      76  74  93 N6        30.14S
TYNDALL AFB    CLOUDY    79  75  89 S7        30.14F
APALACHICOLA   CLOUDY    77  77 100 N7        30.14F

STATION/POSITION SKY/WX   TEMP    WIND        PRES    WAVE   SWELL
                          AIR SEA DIR/SP/G            HT/PER HT/PER
                          (F)     (DEG/KT/KT) (MB)    (FT/S) (FT/S)
30.1N   87.6W              86 88  310/  6/  6 1020.8F   0
29.2N   88.2W              86 89   70/  2/  2 1021.0R
28.8N   86.0W              86 88  360/  6/  8 1020.4F   1
PANAMA CITY BEAC           81 87   90/  5/  7 1021.2F
TOWER C                    83      80/ 18/ 19 1020.8F
28.5N   84.5W              87 88   60/  6/  8 1020.2R   1/ 3

$$
FLZ011-016>038-118-127-128-134-139-239-240600-
NORTH FLORIDA

CITY           SKY/WX    TMP DP  RH WIND       PRES   REMARKS
MARIANNA       CLOUDY    77  76  96 CALM      30.16F
TALLAHASSEE    PTCLDY    79  77  94 N3        30.16F
PERRY          CLOUDY    76  75  96 NE3       30.17S
CROSS CITY     MOCLDY    75  75 100 NE5       30.16S
LAKE CITY      FAIR      75  75 100 NE5       30.17S
GAINESVILLE    MOCLDY    77  75  93 NE3       30.16S
WILLISTON      FAIR      81  79  94 CALM      30.15F
PALATKA        FAIR      81  63  54 E5        30.16S
MAYPORT NAS    MOCLDY    83  75  77 E13       30.17S
JACKSONVILLE   MOCLDY    80  77  90 NE5       30.16F
JAX NAS        MOCLDY    85  75  72 NE8       30.17S
FERNANDINA BEA FAIR      86  77  74 E10       30.16S HX  97
ST AUGUSTINE   CLOUDY    84  78  82 NE9       30.16F HX  95
PALM COAST     FAIR      82  78  89 NE7       30.15S

STATION/POSITION SKY/WX   TEMP    WIND        PRES    WAVE   SWELL
                          AIR SEA DIR/SP/G            HT/PER HT/PER
                          (F)     (DEG/KT/KT) (MB)    (FT/S) (FT/S)
SHELL POINT                78      10/  4/  6 1020.5
KEATON BEACH               77      50/  7/ 10 1020.4F
CEDAR KEY                  78      30/ 10/ 12 1021.2R
FERNANDINA                 83 88   80/  4/  8 1021.8F
30.7N   81.3W                 84                N/A     3/ 5
MAYPORT                    83 84   90/  9/ 12 1021.9F
31.4N   80.9W              84 85   90/ 12/ 14 1022.1S   3/ 6   2/ 6
ST AUGUSTINE               83 83   90/ 11/ 12 1021.9F

$$
FLZ040-043>046-052-053-057-058-063-144-240600-
INTERIOR CENTRAL FLORIDA

CITY           SKY/WX    TMP DP  RH WIND       PRES   REMARKS
OCALA          PTCLDY    79  73  83 N5        30.15S
THE VILLAGES     N/A     81  79  94 CALM      30.05S
LEESBURG       CLOUDY    80  77  90 N5        30.15S
SANFORD        CLEAR     81  77  88 NE5       30.12F
ORLANDO EXEC   PTCLDY    82  78  88 NE8       30.12F
ORLANDO INTL   MOCLDY    82  77  84 NE8       30.12F
KISSIMMEE      CLEAR     82  78  88 E6        30.13F
WINTER HAVEN   CLEAR     79  75  87 NE3       30.14S
LAKELAND       PTCLDY    77  77 100 N3        30.13S
BARTOW         FAIR      79  79 100 NE6       30.13S
OKEECHOBEE     CLEAR     77  77 100 CALM      30.11S

$$
FLZ041-047-054-059-064-141-147-240600-
EAST CENTRAL FLORIDA

CITY           SKY/WX    TMP DP  RH WIND       PRES   REMARKS
DAYTONA BEACH  MOCLDY    84  78  82 NE13      30.13F HX  95
DELAND         CLOUDY    79  77  94 N3        30.13S
JFK SPACE CTR  PTCLDY    80  77  89 NE5       30.11F
CAPE CANAVERAL PTCLDY    81  78  91 NE5       30.10F
PATRICK AFB    CLEAR     83  79  87 NE12      30.10F
MELBOURNE      CLEAR     83  80  91 NE9       30.11S HX  95
VERO BEACH     CLEAR     83  78  85 NE6       30.10F
FT PIERCE      CLEAR     82  79  90 NE3       30.10S
STUART         CLEAR     86  79  79 NE5       30.11R HX  99

STATION/POSITION SKY/WX   TEMP    WIND        PRES    WAVE   SWELL
                          AIR SEA DIR/SP/G            HT/PER HT/PER
                          (F)     (DEG/KT/KT) (MB)    (FT/S) (FT/S)
28.5N   80.2W              82 82   40/  6/  6 1020.1R
TRIDENT PIER               81 86   10/  3/  5 1020.1S
28.4N   80.5W                 84                N/A     1/ 8
27.5N   80.2W                 83                N/A     1/13

$$
FLZ050-056-061-142-242-148-248-149-249-151-251-155-255-
160-260-240600-
WEST CENTRAL FLORIDA

CITY           SKY/WX    TMP DP  RH WIND       PRES   REMARKS
CRYSTAL RIVER  FAIR      79  75  89 NE3       30.15R
INVERNESS      FAIR      77  77 100 N3        30.15S
BROOKSVILLE    PTCLDY    78  75  90 NE6       30.14R
CLEARWATER AIR FAIR      81  73  78 E6        30.11S
ST PETE CLEARW CLEAR     83  76  79 E9        30.11S
TAMPA INTL     PTCLDY    81  74  79 NE6       30.12S
TAMPA EXEC     PTCLDY    77  73  88 CALM      30.13S
PLANT CITY     PTCLDY    79  77  94 N3        30.15R
MACDILL AFB    PTCLDY    80  80 100 E8        30.11S
PETER O KNIGHT PTCLDY    81  77  89 E6        30.12S
ST PETERSBURG  PTCLDY    80  77  90 E17       30.10S
SARASOTA       CLEAR     81  74  79 E6        30.10S
VENICE         FAIR      82  75  78 E8        30.11F

STATION/POSITION SKY/WX   TEMP    WIND        PRES    WAVE   SWELL
                          AIR SEA DIR/SP/G            HT/PER HT/PER
                          (F)     (DEG/KT/KT) (MB)    (FT/S) (FT/S)
27.3N   84.2W                 87                N/A     1/ 3
CLEARWATER BEACH           84 90   80/  5/ 13 1019.5F
MIDDLE TAMPA BAY                   90/ 15/ 20 1020.3R
VENICE                     82 88   80/  6/  8 1019.3R

$$
FLZ066-069-070-075>078-162-262-165-265-240600-
SOUTHWEST FLORIDA AND KEYS

CITY           SKY/WX    TMP DP  RH WIND       PRES   REMARKS
PUNTA GORDA    CLEAR     79  74  84 E3        30.12S
FT MYERS       CLEAR     81  75  82 NE5       30.10R
SOUTHWEST INTL CLEAR     81  74  79 NE3       30.10R
NAPLES         CLEAR     82  76  81 E7        30.09S
MARCO ISLAND   PTCLDY   N/A N/A N/A CALM      30.09F
MARATHON       PTCLDY    86  77  74 E7        30.06F HX  97
KEY WEST NAS   PTCLDY     2 N/A N/A E15G23    30.07  WCI -17
KEY WEST INTL  LGT RAIN  81  75  82 E9        30.07F

STATION/POSITION SKY/WX   TEMP    WIND        PRES    WAVE   SWELL
                          AIR SEA DIR/SP/G            HT/PER HT/PER
                          (F)     (DEG/KT/KT) (MB)    (FT/S) (FT/S)
NAPLES                        88              1019.1R
26.0N   85.6W              85 87   20/ 12/ 12 1019.9F   2/ 4
DRY TORTUGAS               86      60/  7/  8 1018.7R
SAND KEY                   86     110/ 13/ 14 1018.9F
LONG KEY                   86 90   70/ 18/ 20 1018.6F

$$
FLZ067-068-071>074-168-172>174-240600-
SOUTHEAST FLORIDA

CITY           SKY/WX    TMP DP  RH WIND       PRES   REMARKS
W PALM BEACH   PTCLDY    85  77  77 E9        30.09F HX  95
FT LAUDER-EXEC PTCLDY    84  76  76 NE7       30.07F
FT LAUDERDALE  MOCLDY    85  78  80 NE12      30.06F HX  96
POMPANO BEACH  CLEAR     85  77  77 NE9       30.07F HX  95
OPA LOCKA      CLEAR     85  77  77 NE9       30.07F HX  95
MIAMI          MOCLDY    85  78  80 NE9       30.07F HX  96
WEST KENDALL   PTCLDY    84  77  79 NE9       30.06F
HOMESTEAD      PTCLDY    84  77  79 NE13      30.06F

STATION/POSITION SKY/WX   TEMP    WIND        PRES    WAVE   SWELL
                          AIR SEA DIR/SP/G            HT/PER HT/PER
                          (F)     (DEG/KT/KT) (MB)    (FT/S) (FT/S)
PORT EVERGLADES            85      30/ 10/ 16 1018.7F
VIRGINIA KEY               85 90   40/  5/ 10 1019.0F
LAKE WORTH                 85 87   40/ 11/ 12 1019.0F
FOWEY ROCKS                85 87   40/ 16/ 17 1018.7F
SETTLEMENT POINT           86      50/ 11/ 13 1019.3F

$$




USA.gov is the U.S. government's official web portal to all federal, state and local government web resources and services.